• Processing (Info)

  • MPEC 2014-V04 : 2014 UB192

    The following Minor Planet Electronic Circular may be linked-to from your own Web pages, but must not otherwise be redistributed electronically.

    A form allowing access to any MPEC is at the bottom of this page.


    Read MPEC 2014-V03 Read MPEC 2014-V05


    M.P.E.C. 2014-V04                                Issued 2014 Nov. 1, 14:19 UT
    
         The Minor Planet Electronic Circulars contain information on unusual
             minor planets and routine data on comets.  They are published
       on behalf of Commission 20 of the International Astronomical Union by the
              Minor Planet Center, Smithsonian Astrophysical Observatory,
                              Cambridge, MA 02138, U.S.A.
    
                 Prepared using the Tamkin Foundation Computer Network
    
                                  MPC@CFA.HARVARD.EDU
                URL https://www.minorplanetcenter.net/    ISSN 1523-6714
    
                                      2014 UB192
    
    Observations:
         K14UJ2B* C2014 10 29.41875 03 41 31.914+04 58 15.09         21.4 wLEV004F51
         K14UJ2B  C2014 10 29.43160 03 41 32.417+04 58 40.67         21.6 wLEV004F51
         K14UJ2B  C2014 10 29.44446 03 41 32.915+04 59 06.64         21.5 wLEV004F51
         K14UJ2B  C2014 10 29.45737 03 41 33.392+04 59 32.70         21.4 wLEV004F51
         K14UJ2B KC2014 10 30.21426 03 42 12.25 +05 24 58.0          21.0 RoEV004291
         K14UJ2B KC2014 10 30.21721 03 42 12.37 +05 25 04.1          20.8 RoEV004291
         K14UJ2B KC2014 10 30.22016 03 42 12.50 +05 25 10.2          20.8 RoEV004291
         K14UJ2B KC2014 10 30.31653403 42 15.59 +05 28 24.9          21.1 VuEV004H21
         K14UJ2B KC2014 10 30.32473803 42 15.91 +05 28 41.7          21.3 VuEV004H21
         K14UJ2B KC2014 10 30.33247903 42 16.20 +05 28 57.7          21.2 VuEV004H21
         K14UJ2B _C2014 10 30.53154103 42 25.714+05 35 58.67         20.1 RtEV004568
         K14UJ2B _C2014 10 30.53279503 42 25.761+05 36 01.34         20.1 RtEV004568
         K14UJ2B _C2014 10 30.53404903 42 25.808+05 36 03.98         20.1 RtEV004568
         K14UJ2B KC2014 11 01.36369 03 43 53.69 +06 40 57.5          20.9 RoEV004291
         K14UJ2B KC2014 11 01.36554 03 43 53.73 +06 41 01.1          21.4 RoEV004291
         K14UJ2B KC2014 11 01.36739 03 43 53.81 +06 41 05.0          20.8 RoEV004291
    
    Observer details:
    291 LPL/Spacewatch II.  Observer R. A. Mastaler.  1.8-m f/2.7 reflector + CCD.
    568 Mauna Kea.  Observers R. J. Wainscoat, L. Wells.  Measurers M. Micheli,
        R. J. Wainscoat.  3.6-m Canada-France-Hawaii Telescope + CCD.
    F51 Pan-STARRS 1, Haleakala.  Observers B. Gibson, T. Goggia, N. Primak,
        A. Schultz, M. Willman.  Measurers B. Bolin, K. Chambers, S. Chastel,
        L. Denneau, H. Flewelling, M. Huber, E. Magnier, E. Schunova, R. Wainscoat,
        C. Waters.  1.8-m Ritchey-Chretien + CCD.
    H21 Astronomical Research Observatory, Westfield.  Observer R. Holmes.
        Measurers T. Vorobjov, L. Buzzi, S. Foglia, T. Linder.  0.81-m f/4.0
        astrograph + CCD.
    
    Orbital elements:
    2014 UB192                                               Earth MOID = 0.2313 AU
    Epoch 2014 Dec. 9.0 TT = JDT 2457000.5                  MPC
    M   4.39307              (2000.0)            P               Q
    n   0.29060591     Peri.    3.70831     +0.47792852     -0.86659643
    a   2.2573544      Node    57.79320     +0.80148875     +0.36336910
    e   0.4601061      Incl.    9.76496     +0.35944416     +0.34201392
    P   3.39           H   22.5           G   0.15           U   7
    Residuals in seconds of arc
    141029 F51  0.1-  0.0     141030 291  0.0   0.1+    141030 568  0.1+  0.0
    141029 F51  0.0   0.2-    141030 H21  0.2+  0.2-    141101 291  0.1+  0.4+
    141029 F51  0.1+  0.0     141030 H21  0.3+  0.3-    141101 291  0.2-  0.1-
    141029 F51  0.1-  0.2+    141030 H21  0.1+  0.2-    141101 291  0.0   0.2-
    141030 291  0.0   0.1+    141030 568  0.0   0.1-
    141030 291  0.1-  0.1+    141030 568  0.0   0.1-
    
    Ephemeris:
    2014 UB192               a,e,i = 2.26, 0.46, 10                  q = 1.2187
    Date    TT    R. A. (2000) Decl.     Delta      r     Elong.  Phase     V
    2014 10 02    03 09 42.3 -04 17 29   0.4059  1.3366   139.7    29.0    22.4
    ...
    2014 10 17    03 29 13.7 -00 33 13   0.3226  1.2816   147.9    24.4    21.7
    ...
    2014 10 25    03 37 34.6 +02 42 03   0.2879  1.2585   153.3    20.8    21.3
    ...
    2014 10 31    03 42 49.1 +05 52 23   0.2668  1.2444   158.0    17.4    21.0
    2014 11 01    03 43 36.8 +06 27 57   0.2638  1.2423   158.9    16.7    21.0
    2014 11 02    03 44 23.1 +07 04 37   0.2608  1.2403   159.7    16.1    20.9
    ...
    2014 11 08    03 48 35.9 +11 06 43   0.2459  1.2302   165.1    11.9    20.6
    ...
    2014 11 16    03 53 13.6 +17 18 12   0.2340  1.2216   172.9     5.8    20.2
    ...
    2014 12 01    04 00 58.9 +29 30 44   0.2377  1.2210   170.2     7.9    20.4
    
    A. U. Tomatic                (C) Copyright 2014 MPC           M.P.E.C. 2014-V04
    

    Read MPEC 2014-V03 Read MPEC 2014-V05


    MPEC number:

    Enter an MPEC number in one of the following forms:

    • 1997-B01 (the full form)
    • J97B01 (the packed version of the full form)
    • B01 (the abbreviated form)